User: anonymous   Login
Location: Christian Reformed Church
(43.0975°N, 93.8113°W)
Time: 03:21:20
(UTC+00:00)
Language:

Cosmos 1833 - Orbit

View from above orbital plane
View from above orbital plane
View from above satellite
View from above satellite

Ground track
Ground track

The orbit is defined by the following mean orbital elements,

1 17589U          26040.40288984 +.00000000 +00000-0 +51136-4 0 00008
2 17589  70.9215  25.4666 0024901 252.4435 107.3966 14.13056629    05
Epoch (UTC): 09 February 2026 09:40:09
Eccentricity: 0.0024901
inclination: 70.9215°
perigee height: 831 km
apogee height: 867 km
right ascension of ascending node: 25.4666°
argument of perigee: 252.4435°
revolutions per day: 14.13056629
mean anomaly at epoch: 107.3966°

The dashed part of the orbit path shows where the satellite is in the earth's shadow,  

DLR